Time,TemperatureF,DewpointF,PressureIn,WindDirection,WindDirectionDegrees,WindSpeedMPH,WindSpeedGustMPH,Humidity,HourlyPrecipIn,Conditions,Clouds,dailyrainin,SoftwareType,DateUTC
2013-03-29 00:00:00,38.7,13.3,30.27,NW,315,2.0,4.0,35,0.00,,,0.00,meteohub,2013-03-29 05:00:00,
2013-03-29 00:05:00,38.7,13.3,30.27,NW,315,2.0,3.0,35,0.00,,,0.00,meteohub,2013-03-29 05:05:00,
2013-03-29 00:11:00,39.0,13.1,30.27,West,270,2.0,3.0,34,0.00,,,0.00,meteohub,2013-03-29 05:11:00,
2013-03-29 00:16:00,39.0,13.1,30.27,West,270,2.0,2.0,34,0.00,,,0.00,meteohub,2013-03-29 05:16:00,
2013-03-29 00:22:00,38.7,12.7,30.27,West,270,2.0,2.0,34,0.00,,,0.00,meteohub,2013-03-29 05:22:00,
2013-03-29 00:27:00,38.3,14.9,30.27,SW,225,2.0,2.0,38,0.00,,,0.00,meteohub,2013-03-29 05:27:00,
2013-03-29 00:32:00,37.4,14.7,30.27,SW,225,2.0,2.0,39,0.00,,,0.00,meteohub,2013-03-29 05:32:00,
2013-03-29 00:37:00,36.9,15.4,30.27,SW,225,3.0,3.0,41,0.00,,,0.00,meteohub,2013-03-29 05:37:00,
2013-03-29 00:42:00,36.5,15.6,30.27,SW,225,3.0,3.0,42,0.00,,,0.00,meteohub,2013-03-29 05:42:00,
2013-03-29 00:47:00,36.0,15.1,30.27,SW,225,3.0,3.0,42,0.00,,,0.00,meteohub,2013-03-29 05:47:00,
2013-03-29 00:52:00,35.8,14.9,30.27,SW,225,3.0,3.0,42,0.00,,,0.00,meteohub,2013-03-29 05:52:00,
2013-03-29 00:58:00,35.6,14.7,30.27,West,270,2.0,4.0,42,0.00,,,0.00,meteohub,2013-03-29 05:58:00,
2013-03-29 01:03:00,35.6,14.7,30.27,West,270,2.0,4.0,42,0.00,,,0.00,meteohub,2013-03-29 06:03:00,
2013-03-29 01:08:00,35.8,14.9,30.27,West,270,3.0,4.0,42,0.00,,,0.00,meteohub,2013-03-29 06:08:00,
2013-03-29 01:13:00,35.8,14.4,30.27,West,270,3.0,3.0,41,0.00,,,0.00,meteohub,2013-03-29 06:13:00,
2013-03-29 01:18:00,35.8,14.9,30.27,West,270,2.0,3.0,42,0.00,,,0.00,meteohub,2013-03-29 06:18:00,
2013-03-29 01:24:00,35.8,14.4,30.27,West,270,3.0,3.0,41,0.00,,,0.00,meteohub,2013-03-29 06:24:00,
2013-03-29 01:29:00,35.8,14.4,30.27,West,270,3.0,3.0,41,0.00,,,0.00,meteohub,2013-03-29 06:29:00,
2013-03-29 01:34:00,35.8,14.4,30.27,West,270,2.0,3.0,41,0.00,,,0.00,meteohub,2013-03-29 06:34:00,
2013-03-29 01:39:00,35.8,13.8,30.27,NW,315,2.0,3.0,40,0.00,,,0.00,meteohub,2013-03-29 06:39:00,
2013-03-29 01:45:00,36.0,13.5,30.27,NE,45,2.0,3.0,39,0.00,,,0.00,meteohub,2013-03-29 06:45:00,
2013-03-29 01:50:00,36.1,12.9,30.27,North,0,1.0,2.0,38,0.00,,,0.00,meteohub,2013-03-29 06:50:00,
2013-03-29 01:55:00,36.5,12.0,30.27,NNW,338,2.0,2.0,36,0.00,,,0.00,meteohub,2013-03-29 06:55:00,
2013-03-29 02:00:00,36.7,12.2,30.27,North,0,2.0,2.0,36,0.00,,,0.00,meteohub,2013-03-29 07:00:00,
2013-03-29 02:05:00,36.7,12.2,30.27,North,0,2.0,2.0,36,0.00,,,0.00,meteohub,2013-03-29 07:05:00,
2013-03-29 02:11:00,36.7,11.7,30.27,WNW,293,2.0,2.0,35,0.00,,,0.00,meteohub,2013-03-29 07:11:00,
2013-03-29 02:16:00,36.7,12.2,30.27,NW,315,1.0,2.0,36,0.00,,,0.00,meteohub,2013-03-29 07:16:00,
2013-03-29 02:21:00,36.1,12.9,30.27,SW,225,3.0,3.0,38,0.00,,,0.00,meteohub,2013-03-29 07:21:00,
2013-03-29 02:26:00,35.6,12.6,30.26,NW,315,2.0,3.0,38,0.00,,,0.00,meteohub,2013-03-29 07:26:00,
2013-03-29 02:31:00,35.8,11.5,30.26,NE,45,2.0,3.0,36,0.00,,,0.00,meteohub,2013-03-29 07:31:00,
2013-03-29 02:37:00,36.1,10.4,30.27,North,0,2.0,3.0,34,0.00,,,0.00,meteohub,2013-03-29 07:37:00,
2013-03-29 02:42:00,36.7,10.2,30.27,North,0,1.0,2.0,33,0.00,,,0.00,meteohub,2013-03-29 07:42:00,
2013-03-29 02:47:00,36.7,10.2,30.26,NW,315,2.0,2.0,33,0.00,,,0.00,meteohub,2013-03-29 07:47:00,
2013-03-29 02:52:00,36.7,10.2,30.27,NW,315,3.0,3.0,33,0.00,,,0.00,meteohub,2013-03-29 07:52:00,
2013-03-29 02:57:00,36.7,10.2,30.26,North,0,1.0,3.0,33,0.00,,,0.00,meteohub,2013-03-29 07:57:00,
2013-03-29 03:02:00,36.7,10.2,30.26,West,270,3.0,3.0,33,0.00,,,0.00,meteohub,2013-03-29 08:02:00,
2013-03-29 03:07:00,36.9,10.4,30.25,North,0,4.0,4.0,33,0.00,,,0.00,meteohub,2013-03-29 08:07:00,
2013-03-29 03:12:00,36.9,10.4,30.25,NW,315,3.0,4.0,33,0.00,,,0.00,meteohub,2013-03-29 08:12:00,
2013-03-29 03:18:00,36.9,10.4,30.26,North,0,3.0,4.0,33,0.00,,,0.00,meteohub,2013-03-29 08:18:00,
2013-03-29 03:23:00,36.7,10.2,30.26,NW,315,4.0,4.0,33,0.00,,,0.00,meteohub,2013-03-29 08:23:00,
2013-03-29 03:28:00,36.7,10.2,30.26,NW,315,4.0,4.0,33,0.00,,,0.00,meteohub,2013-03-29 08:28:00,
2013-03-29 03:33:00,36.7,10.2,30.25,North,0,2.0,4.0,33,0.00,,,0.00,meteohub,2013-03-29 08:33:00,
2013-03-29 03:38:00,36.5,10.8,30.26,NW,315,4.0,4.0,34,0.00,,,0.00,meteohub,2013-03-29 08:38:00,
2013-03-29 03:43:00,36.5,10.8,30.26,NW,315,4.0,4.0,34,0.00,,,0.00,meteohub,2013-03-29 08:43:00,
2013-03-29 03:48:00,36.3,10.6,30.25,East,90,2.0,5.0,34,0.00,,,0.00,meteohub,2013-03-29 08:48:00,
2013-03-29 03:53:00,36.3,10.0,30.26,South,180,3.0,5.0,33,0.00,,,0.00,meteohub,2013-03-29 08:53:00,
2013-03-29 03:58:00,36.3,10.0,30.26,East,90,3.0,5.0,33,0.00,,,0.00,meteohub,2013-03-29 08:58:00,
2013-03-29 04:03:00,36.1,9.9,30.25,NE,45,2.0,3.0,33,0.00,,,0.00,meteohub,2013-03-29 09:03:00,
2013-03-29 04:09:00,36.3,10.0,30.25,NW,315,3.0,3.0,33,0.00,,,0.00,meteohub,2013-03-29 09:09:00,
2013-03-29 04:14:00,36.1,9.9,30.25,East,90,2.0,4.0,33,0.00,,,0.00,meteohub,2013-03-29 09:14:00,
2013-03-29 04:20:00,36.1,9.9,30.25,NW,315,3.0,4.0,33,0.00,,,0.00,meteohub,2013-03-29 09:20:00,
2013-03-29 04:25:00,36.1,9.9,30.25,NW,315,3.0,4.0,33,0.00,,,0.00,meteohub,2013-03-29 09:25:00,
2013-03-29 04:31:00,36.1,9.9,30.25,North,0,4.0,4.0,33,0.00,,,0.00,meteohub,2013-03-29 09:31:00,
2013-03-29 04:36:00,36.1,9.9,30.25,NW,315,2.0,4.0,33,0.00,,,0.00,meteohub,2013-03-29 09:36:00,
2013-03-29 04:41:00,36.0,9.7,30.25,NW,315,2.0,4.0,33,0.00,,,0.00,meteohub,2013-03-29 09:41:00,
2013-03-29 04:46:00,35.4,9.9,30.25,West,270,2.0,4.0,34,0.00,,,0.00,meteohub,2013-03-29 09:46:00,
2013-03-29 04:52:00,34.2,10.0,30.25,West,270,3.0,4.0,36,0.00,,,0.00,meteohub,2013-03-29 09:52:00,
2013-03-29 04:57:00,33.4,10.6,30.25,West,270,2.0,3.0,38,0.00,,,0.00,meteohub,2013-03-29 09:57:00,
2013-03-29 05:02:00,33.3,10.4,30.25,NW,315,2.0,3.0,38,0.00,,,0.00,meteohub,2013-03-29 10:02:00,
2013-03-29 05:07:00,33.3,10.4,30.25,NW,315,2.0,3.0,38,0.00,,,0.00,meteohub,2013-03-29 10:07:00,
2013-03-29 05:12:00,34.3,10.2,30.25,West,270,2.0,2.0,36,0.00,,,0.00,meteohub,2013-03-29 10:12:00,
2013-03-29 05:17:00,34.7,9.9,30.25,NE,45,3.0,3.0,35,0.00,,,0.00,meteohub,2013-03-29 10:17:00,
2013-03-29 05:22:00,35.2,9.7,30.25,West,270,3.0,3.0,34,0.00,,,0.00,meteohub,2013-03-29 10:22:00,
2013-03-29 05:27:00,35.4,9.1,30.25,West,270,3.0,4.0,33,0.00,,,0.00,meteohub,2013-03-29 10:27:00,
2013-03-29 05:32:00,35.4,9.1,30.25,NW,315,2.0,4.0,33,0.00,,,0.00,meteohub,2013-03-29 10:32:00,
2013-03-29 05:37:00,35.1,8.8,30.25,NW,315,2.0,4.0,33,0.00,,,0.00,meteohub,2013-03-29 10:37:00,
2013-03-29 05:43:00,34.9,9.3,30.25,West,270,3.0,4.0,34,0.00,,,0.00,meteohub,2013-03-29 10:43:00,
2013-03-29 05:48:00,34.9,9.3,30.25,NW,315,2.0,3.0,34,0.00,,,0.00,meteohub,2013-03-29 10:48:00,
2013-03-29 05:53:00,34.9,9.3,30.26,North,0,2.0,3.0,34,0.00,,,0.00,meteohub,2013-03-29 10:53:00,
2013-03-29 05:58:00,34.7,9.1,30.26,NW,315,2.0,3.0,34,0.00,,,0.00,meteohub,2013-03-29 10:58:00,
2013-03-29 06:04:00,34.9,9.3,30.25,North,0,2.0,3.0,34,0.00,,,0.00,meteohub,2013-03-29 11:04:00,
2013-03-29 06:09:00,35.2,9.0,30.25,NW,315,2.0,3.0,33,0.00,,,0.00,meteohub,2013-03-29 11:09:00,
2013-03-29 06:14:00,35.2,9.0,30.26,North,0,3.0,4.0,33,0.00,,,0.00,meteohub,2013-03-29 11:14:00,
2013-03-29 06:19:00,35.2,9.0,30.25,North,0,3.0,4.0,33,0.00,,,0.00,meteohub,2013-03-29 11:19:00,
2013-03-29 06:24:00,35.2,9.0,30.25,NW,315,2.0,4.0,33,0.00,,,0.00,meteohub,2013-03-29 11:24:00,
2013-03-29 06:29:00,35.1,8.8,30.25,North,0,3.0,4.0,33,0.00,,,0.00,meteohub,2013-03-29 11:29:00,
2013-03-29 06:35:00,35.1,8.8,30.26,North,0,4.0,4.0,33,0.00,,,0.00,meteohub,2013-03-29 11:35:00,
2013-03-29 06:40:00,34.9,9.3,30.26,North,0,4.0,5.0,34,0.00,,,0.00,meteohub,2013-03-29 11:40:00,
2013-03-29 06:45:00,34.7,9.1,30.26,North,0,4.0,5.0,34,0.00,,,0.00,meteohub,2013-03-29 11:45:00,
2013-03-29 06:50:00,34.9,9.3,30.26,North,0,4.0,6.0,34,0.00,,,0.00,meteohub,2013-03-29 11:50:00,
2013-03-29 06:55:00,34.9,9.3,30.27,NW,315,5.0,6.0,34,0.00,,,0.00,meteohub,2013-03-29 11:55:00,
2013-03-29 07:01:00,34.9,9.3,30.27,NW,315,4.0,6.0,34,0.00,,,0.00,meteohub,2013-03-29 12:01:00,
2013-03-29 07:06:00,34.9,9.3,30.27,NW,315,4.0,5.0,34,0.00,,,0.00,meteohub,2013-03-29 12:06:00,
2013-03-29 07:11:00,34.9,10.0,30.27,North,0,5.0,5.0,35,0.00,,,0.00,meteohub,2013-03-29 12:11:00,
2013-03-29 07:17:00,34.9,10.0,30.27,North,0,6.0,6.0,35,0.00,,,0.00,meteohub,2013-03-29 12:17:00,
2013-03-29 07:22:00,34.5,10.2,30.27,North,0,4.0,6.0,36,0.00,,,0.00,meteohub,2013-03-29 12:22:00,
2013-03-29 07:28:00,34.7,10.4,30.27,North,0,4.0,6.0,36,0.00,,,0.00,meteohub,2013-03-29 12:28:00,
2013-03-29 07:33:00,35.1,10.8,30.27,North,0,4.0,6.0,36,0.00,,,0.00,meteohub,2013-03-29 12:33:00,
2013-03-29 07:38:00,35.4,10.4,30.27,NW,315,4.0,5.0,35,0.00,,,0.00,meteohub,2013-03-29 12:38:00,
2013-03-29 07:43:00,35.8,10.2,30.27,North,0,5.0,5.0,34,0.00,,,0.00,meteohub,2013-03-29 12:43:00,
2013-03-29 07:48:00,36.0,10.2,30.27,North,0,4.0,5.0,34,0.00,,,0.00,meteohub,2013-03-29 12:48:00,
2013-03-29 07:54:00,36.3,10.0,30.27,North,0,5.0,5.0,33,0.00,,,0.00,meteohub,2013-03-29 12:54:00,
2013-03-29 07:59:00,36.7,10.2,30.28,North,0,4.0,6.0,33,0.00,,,0.00,meteohub,2013-03-29 12:59:00,
2013-03-29 08:05:00,36.7,10.2,30.28,North,0,4.0,6.0,33,0.00,,,0.00,meteohub,2013-03-29 13:05:00,
2013-03-29 08:10:00,37.0,10.6,30.28,North,0,4.0,6.0,33,0.00,,,0.00,meteohub,2013-03-29 13:10:00,
2013-03-29 08:15:00,37.2,10.8,30.28,North,0,4.0,5.0,33,0.00,,,0.00,meteohub,2013-03-29 13:15:00,
2013-03-29 08:20:00,37.6,9.7,30.27,NE,45,5.0,5.0,31,0.00,,,0.00,meteohub,2013-03-29 13:20:00,
2013-03-29 08:25:00,37.8,11.3,30.27,North,0,6.0,6.0,33,0.00,,,0.00,meteohub,2013-03-29 13:25:00,
2013-03-29 08:30:00,37.9,11.3,30.28,North,0,5.0,6.0,33,0.00,,,0.00,meteohub,2013-03-29 13:30:00,
2013-03-29 08:36:00,38.3,10.9,30.28,NNE,23,4.0,6.0,32,0.00,,,0.00,meteohub,2013-03-29 13:36:00,
2013-03-29 08:41:00,38.5,11.1,30.28,North,0,4.0,6.0,32,0.00,,,0.00,meteohub,2013-03-29 13:41:00,
2013-03-29 08:46:00,39.2,11.1,30.28,North,0,4.0,5.0,31,0.00,,,0.00,meteohub,2013-03-29 13:46:00,
2013-03-29 08:51:00,39.2,11.8,30.28,NE,45,4.0,5.0,32,0.00,,,0.00,meteohub,2013-03-29 13:51:00,
2013-03-29 08:57:00,39.6,10.8,30.28,NE,45,5.0,5.0,30,0.00,,,0.00,meteohub,2013-03-29 13:57:00,
2013-03-29 09:02:00,39.6,10.8,30.29,NE,45,5.0,5.0,30,0.00,,,0.00,meteohub,2013-03-29 14:02:00,
2013-03-29 09:07:00,39.6,10.8,30.28,NE,45,5.0,5.0,30,0.00,,,0.00,meteohub,2013-03-29 14:07:00,
2013-03-29 09:12:00,39.7,12.2,30.29,NNE,23,5.0,5.0,32,0.00,,,0.00,meteohub,2013-03-29 14:12:00,
2013-03-29 09:17:00,40.1,11.1,30.29,NE,45,6.0,6.0,30,0.00,,,0.00,meteohub,2013-03-29 14:17:00,
2013-03-29 09:22:00,40.1,11.1,30.29,NE,45,7.0,7.0,30,0.00,,,0.00,meteohub,2013-03-29 14:22:00,
2013-03-29 09:27:00,40.1,12.6,30.30,NE,45,6.0,7.0,32,0.00,,,0.00,meteohub,2013-03-29 14:27:00,
2013-03-29 09:32:00,40.5,12.2,30.30,NE,45,5.0,7.0,31,0.00,,,0.00,meteohub,2013-03-29 14:32:00,
2013-03-29 09:38:00,41.2,12.0,30.29,NE,45,4.0,7.0,30,0.00,,,0.00,meteohub,2013-03-29 14:38:00,
2013-03-29 09:43:00,41.5,11.7,30.29,NE,45,4.0,6.0,29,0.00,,,0.00,meteohub,2013-03-29 14:43:00,
2013-03-29 09:48:00,41.9,12.7,30.29,NE,45,4.0,6.0,30,0.00,,,0.00,meteohub,2013-03-29 14:48:00,
2013-03-29 09:53:00,42.4,11.7,30.29,NE,45,4.0,5.0,28,0.00,,,0.00,meteohub,2013-03-29 14:53:00,
2013-03-29 09:58:00,42.8,13.5,30.29,NE,45,4.0,5.0,30,0.00,,,0.00,meteohub,2013-03-29 14:58:00,
2013-03-29 10:03:00,43.2,13.8,30.29,NE,45,4.0,5.0,30,0.00,,,0.00,meteohub,2013-03-29 15:03:00,
2013-03-29 10:08:00,44.2,13.1,30.29,East,90,3.0,4.0,28,0.00,,,0.00,meteohub,2013-03-29 15:08:00,
2013-03-29 10:13:00,45.0,12.9,30.30,East,90,4.0,4.0,27,0.00,,,0.00,meteohub,2013-03-29 15:13:00,
2013-03-29 10:19:00,44.6,11.8,30.29,East,90,4.0,4.0,26,0.00,,,0.00,meteohub,2013-03-29 15:19:00,
2013-03-29 10:24:00,44.6,11.8,30.29,East,90,3.0,4.0,26,0.00,,,0.00,meteohub,2013-03-29 15:24:00,
2013-03-29 10:29:00,44.8,12.0,30.29,SE,135,2.0,4.0,26,0.00,,,0.00,meteohub,2013-03-29 15:29:00,
2013-03-29 10:34:00,45.3,12.4,30.30,East,90,2.0,4.0,26,0.00,,,0.00,meteohub,2013-03-29 15:34:00,
2013-03-29 10:39:00,46.0,11.3,30.29,NE,45,2.0,4.0,24,0.00,,,0.00,meteohub,2013-03-29 15:39:00,
2013-03-29 10:45:00,46.6,10.8,30.30,North,0,2.0,4.0,23,0.00,,,0.00,meteohub,2013-03-29 15:45:00,
2013-03-29 10:50:00,46.8,8.8,30.30,South,180,2.0,4.0,21,0.00,,,0.00,meteohub,2013-03-29 15:50:00,
2013-03-29 10:55:00,47.1,9.1,30.30,SE,135,2.0,4.0,21,0.00,,,0.00,meteohub,2013-03-29 15:55:00,
2013-03-29 11:00:00,48.0,10.9,30.29,NE,45,0.0,4.0,22,0.00,,,0.00,meteohub,2013-03-29 16:00:00,
2013-03-29 11:05:00,49.1,8.6,30.29,SE,135,4.0,4.0,19,0.00,,,0.00,meteohub,2013-03-29 16:05:00,
2013-03-29 11:10:00,48.0,8.8,30.29,East,90,4.0,4.0,20,0.00,,,0.00,meteohub,2013-03-29 16:10:00,
2013-03-29 11:15:00,46.9,7.9,30.29,SE,135,4.0,4.0,20,0.00,,,0.00,meteohub,2013-03-29 16:15:00,
2013-03-29 11:20:00,46.4,8.6,30.29,East,90,4.0,4.0,21,0.00,,,0.00,meteohub,2013-03-29 16:20:00,
2013-03-29 11:26:00,46.6,10.8,30.29,East,90,4.0,4.0,23,0.00,,,0.00,meteohub,2013-03-29 16:26:00,
2013-03-29 11:32:00,46.2,9.5,30.29,SE,135,4.0,5.0,22,0.00,,,0.00,meteohub,2013-03-29 16:32:00,
2013-03-29 11:37:00,46.9,11.1,30.28,NE,45,3.0,5.0,23,0.00,,,0.00,meteohub,2013-03-29 16:37:00,
2013-03-29 11:42:00,48.0,12.0,30.28,NE,45,3.0,5.0,23,0.00,,,0.00,meteohub,2013-03-29 16:42:00,
2013-03-29 11:47:00,48.2,11.1,30.28,East,90,2.0,4.0,22,0.00,,,0.00,meteohub,2013-03-29 16:47:00,
2013-03-29 11:52:00,47.7,11.7,30.28,NE,45,2.0,4.0,23,0.00,,,0.00,meteohub,2013-03-29 16:52:00,
2013-03-29 11:57:00,48.0,10.9,30.28,East,90,3.0,4.0,22,0.00,,,0.00,meteohub,2013-03-29 16:57:00,
2013-03-29 12:02:00,48.9,11.7,30.27,NE,45,4.0,4.0,22,0.00,,,0.00,meteohub,2013-03-29 17:02:00,
2013-03-29 12:07:00,48.4,11.3,30.28,NE,45,7.0,7.0,22,0.00,,,0.00,meteohub,2013-03-29 17:07:00,
2013-03-29 12:13:00,48.0,10.9,30.27,NE,45,8.0,8.0,22,0.00,,,0.00,meteohub,2013-03-29 17:13:00,
2013-03-29 12:18:00,47.8,10.8,30.27,NE,45,4.0,8.0,22,0.00,,,0.00,meteohub,2013-03-29 17:18:00,
2013-03-29 12:23:00,48.0,9.9,30.27,East,90,3.0,8.0,21,0.00,,,0.00,meteohub,2013-03-29 17:23:00,
2013-03-29 12:28:00,48.4,9.1,30.27,East,90,3.0,8.0,20,0.00,,,0.00,meteohub,2013-03-29 17:28:00,
2013-03-29 12:34:00,47.7,8.6,30.27,SE,135,5.0,5.0,20,0.00,,,0.00,meteohub,2013-03-29 17:34:00,
2013-03-29 12:39:00,47.1,11.1,30.27,NE,45,4.0,6.0,23,0.00,,,0.00,meteohub,2013-03-29 17:39:00,
2013-03-29 12:44:00,47.5,9.5,30.27,East,90,5.0,6.0,21,0.00,,,0.00,meteohub,2013-03-29 17:44:00,
2013-03-29 12:49:00,47.3,10.4,30.27,SE,135,8.0,8.0,22,0.00,,,0.00,meteohub,2013-03-29 17:49:00,
2013-03-29 12:55:00,47.1,8.1,30.27,SE,135,4.0,6.0,20,0.00,,,0.00,meteohub,2013-03-29 17:55:00,
2013-03-29 13:00:00,47.1,9.1,30.27,East,90,3.0,8.0,21,0.00,,,0.00,meteohub,2013-03-29 18:00:00,
2013-03-29 13:05:00,47.7,9.7,30.26,East,90,4.0,8.0,21,0.00,,,0.00,meteohub,2013-03-29 18:05:00,
2013-03-29 13:10:00,47.5,9.5,30.27,East,90,4.0,7.0,21,0.00,,,0.00,meteohub,2013-03-29 18:10:00,
2013-03-29 13:15:00,47.3,10.4,30.26,SE,135,5.0,6.0,22,0.00,,,0.00,meteohub,2013-03-29 18:15:00,
2013-03-29 13:20:00,47.3,9.3,30.26,SE,135,5.0,6.0,21,0.00,,,0.00,meteohub,2013-03-29 18:20:00,
2013-03-29 13:26:00,47.7,11.7,30.26,East,90,7.0,7.0,23,0.00,,,0.00,meteohub,2013-03-29 18:26:00,
2013-03-29 13:31:00,47.8,11.8,30.25,SE,135,8.0,8.0,23,0.00,,,0.00,meteohub,2013-03-29 18:31:00,
2013-03-29 13:36:00,47.5,10.6,30.25,SE,135,6.0,8.0,22,0.00,,,0.00,meteohub,2013-03-29 18:36:00,
2013-03-29 13:42:00,10.8,-20.6,30.26,SE,135,3.0,8.0,22,0.00,,,0.00,meteohub,2013-03-29 18:42:00,
2013-03-29 13:47:00,48.0,10.9,30.25,South,180,5.0,8.0,22,0.00,,,0.00,meteohub,2013-03-29 18:47:00,
2013-03-29 13:52:00,48.6,10.4,30.25,SE,135,5.0,6.0,21,0.00,,,0.00,meteohub,2013-03-29 18:52:00,
2013-03-29 13:57:00,49.3,9.9,30.25,SE,135,5.0,6.0,20,0.00,,,0.00,meteohub,2013-03-29 18:57:00,
2013-03-29 14:03:00,48.9,10.8,30.25,South,180,5.0,5.0,21,0.00,,,0.00,meteohub,2013-03-29 19:03:00,
2013-03-29 14:08:00,49.5,11.1,30.25,SW,225,4.0,5.0,21,0.00,,,0.00,meteohub,2013-03-29 19:08:00,
2013-03-29 14:13:00,49.5,11.1,30.25,SW,225,4.0,5.0,21,0.00,,,0.00,meteohub,2013-03-29 19:13:00,
2013-03-29 14:18:00,49.8,10.4,30.25,North,0,2.0,5.0,20,0.00,,,0.00,meteohub,2013-03-29 19:18:00,
2013-03-29 14:23:00,49.8,9.1,30.25,SE,135,4.0,4.0,19,0.00,,,0.00,meteohub,2013-03-29 19:23:00,
2013-03-29 14:28:00,49.8,9.1,30.25,SE,135,4.0,4.0,19,0.00,,,0.00,meteohub,2013-03-29 19:28:00,
2013-03-29 14:33:00,49.8,9.1,30.24,SE,135,4.0,4.0,19,0.00,,,0.00,meteohub,2013-03-29 19:33:00,
2013-03-29 14:39:00,49.8,10.4,30.25,NE,45,2.0,4.0,20,0.00,,,0.00,meteohub,2013-03-29 19:39:00,
2013-03-29 14:44:00,50.2,9.5,30.24,SE,135,4.0,4.0,19,0.00,,,0.00,meteohub,2013-03-29 19:44:00,
2013-03-29 14:49:00,49.3,9.9,30.24,SE,135,6.0,6.0,20,0.00,,,0.00,meteohub,2013-03-29 19:49:00,
2013-03-29 14:54:00,49.3,10.9,30.24,East,90,4.0,6.0,21,0.00,,,0.00,meteohub,2013-03-29 19:54:00,
2013-03-29 14:59:00,49.6,11.3,30.23,East,90,2.0,6.0,21,0.00,,,0.00,meteohub,2013-03-29 19:59:00,
2013-03-29 15:05:00,50.0,10.4,30.23,South,180,2.0,6.0,20,0.00,,,0.00,meteohub,2013-03-29 20:05:00,
2013-03-29 15:10:00,49.8,9.1,30.24,SW,225,3.0,4.0,19,0.00,,,0.00,meteohub,2013-03-29 20:10:00,
2013-03-29 15:15:00,49.5,10.0,30.24,SE,135,5.0,5.0,20,0.00,,,0.00,meteohub,2013-03-29 20:15:00,
2013-03-29 15:20:00,49.1,8.6,30.23,South,180,4.0,5.0,19,0.00,,,0.00,meteohub,2013-03-29 20:20:00,
2013-03-29 15:25:00,48.9,11.7,30.23,SE,135,5.0,5.0,22,0.00,,,0.00,meteohub,2013-03-29 20:25:00,
2013-03-29 15:30:00,48.7,12.6,30.23,South,180,3.0,7.0,23,0.00,,,0.00,meteohub,2013-03-29 20:30:00,
2013-03-29 15:36:00,49.3,9.9,30.23,SW,225,3.0,7.0,20,0.00,,,0.00,meteohub,2013-03-29 20:36:00,
2013-03-29 15:41:00,49.8,10.4,30.22,SW,225,5.0,7.0,20,0.00,,,0.00,meteohub,2013-03-29 20:41:00,
2013-03-29 15:46:00,49.8,10.4,30.22,South,180,3.0,7.0,20,0.00,,,0.00,meteohub,2013-03-29 20:46:00,
2013-03-29 15:51:00,50.0,11.7,30.22,NW,315,7.0,7.0,21,0.00,,,0.00,meteohub,2013-03-29 20:51:00,
2013-03-29 15:56:00,50.0,11.7,30.22,West,270,6.0,7.0,21,0.00,,,0.00,meteohub,2013-03-29 20:56:00,
2013-03-29 16:02:00,50.0,12.6,30.22,West,270,3.0,7.0,22,0.00,,,0.00,meteohub,2013-03-29 21:02:00,
2013-03-29 16:07:00,50.0,12.6,30.22,West,270,6.0,7.0,22,0.00,,,0.00,meteohub,2013-03-29 21:07:00,
2013-03-29 16:12:00,50.0,10.4,30.22,SW,225,6.0,8.0,20,0.00,,,0.00,meteohub,2013-03-29 21:12:00,
2013-03-29 16:17:00,50.0,11.7,30.22,West,270,4.0,8.0,21,0.00,,,0.00,meteohub,2013-03-29 21:17:00,
2013-03-29 16:22:00,50.5,12.0,30.22,West,270,3.0,7.0,21,0.00,,,0.00,meteohub,2013-03-29 21:22:00,
2013-03-29 16:27:00,50.7,12.2,30.21,WSW,248,6.0,7.0,21,0.00,,,0.00,meteohub,2013-03-29 21:27:00,
2013-03-29 16:32:00,50.5,12.0,30.21,West,270,5.0,6.0,21,0.00,,,0.00,meteohub,2013-03-29 21:32:00,
2013-03-29 16:37:00,50.4,11.8,30.21,SW,225,7.0,7.0,21,0.00,,,0.00,meteohub,2013-03-29 21:37:00,
2013-03-29 16:43:00,50.4,12.9,30.21,SW,225,3.0,7.0,22,0.00,,,0.00,meteohub,2013-03-29 21:43:00,
2013-03-29 16:48:00,50.4,11.8,30.21,West,270,4.0,7.0,21,0.00,,,0.00,meteohub,2013-03-29 21:48:00,
2013-03-29 16:53:00,50.4,12.9,30.20,SW,225,5.0,7.0,22,0.00,,,0.00,meteohub,2013-03-29 21:53:00,
2013-03-29 16:58:00,50.4,11.8,30.21,SW,225,5.0,5.0,21,0.00,,,0.00,meteohub,2013-03-29 21:58:00,
2013-03-29 17:03:00,50.2,11.7,30.21,NW,315,5.0,6.0,21,0.00,,,0.00,meteohub,2013-03-29 22:03:00,
2013-03-29 17:08:00,50.2,11.7,30.21,West,270,4.0,6.0,21,0.00,,,0.00,meteohub,2013-03-29 22:08:00,
2013-03-29 17:14:00,50.5,10.9,30.21,SW,225,3.0,6.0,20,0.00,,,0.00,meteohub,2013-03-29 22:14:00,
2013-03-29 17:19:00,50.5,10.9,30.21,South,180,3.0,5.0,20,0.00,,,0.00,meteohub,2013-03-29 22:19:00,
2013-03-29 17:24:00,50.5,12.0,30.21,SE,135,3.0,4.0,21,0.00,,,0.00,meteohub,2013-03-29 22:24:00,
2013-03-29 17:29:00,49.8,11.5,30.21,SE,135,4.0,4.0,21,0.00,,,0.00,meteohub,2013-03-29 22:29:00,
2013-03-29 17:35:00,49.6,12.4,30.20,SE,135,3.0,4.0,22,0.00,,,0.00,meteohub,2013-03-29 22:35:00,
2013-03-29 17:40:00,49.6,12.4,30.20,North,0,2.0,4.0,22,0.00,,,0.00,meteohub,2013-03-29 22:40:00,
2013-03-29 17:45:00,49.6,12.4,30.20,North,0,2.0,4.0,22,0.00,,,0.00,meteohub,2013-03-29 22:45:00,
2013-03-29 17:50:00,49.5,13.1,30.20,South,180,4.0,4.0,23,0.00,,,0.00,meteohub,2013-03-29 22:50:00,
2013-03-29 17:55:00,49.5,12.2,30.20,SW,225,4.0,4.0,22,0.00,,,0.00,meteohub,2013-03-29 22:55:00,
2013-03-29 18:00:00,49.3,13.1,30.20,SW,225,4.0,5.0,23,0.00,,,0.00,meteohub,2013-03-29 23:00:00,
2013-03-29 18:05:00,48.7,13.5,30.20,SW,225,4.0,5.0,24,0.00,,,0.00,meteohub,2013-03-29 23:05:00,
2013-03-29 18:11:00,48.9,12.7,30.20,SW,225,4.0,4.0,23,0.00,,,0.00,meteohub,2013-03-29 23:11:00,
2013-03-29 18:16:00,48.6,12.4,30.20,SE,135,3.0,4.0,23,0.00,,,0.00,meteohub,2013-03-29 23:16:00,
2013-03-29 18:22:00,47.8,13.6,30.20,ESE,113,3.0,4.0,25,0.00,,,0.00,meteohub,2013-03-29 23:22:00,
2013-03-29 18:27:00,47.3,13.3,30.21,SE,135,3.0,4.0,25,0.00,,,0.00,meteohub,2013-03-29 23:27:00,
2013-03-29 18:32:00,47.1,13.1,30.20,SE,135,4.0,4.0,25,0.00,,,0.00,meteohub,2013-03-29 23:32:00,
2013-03-29 18:37:00,47.1,13.1,30.21,SE,135,4.0,4.0,25,0.00,,,0.00,meteohub,2013-03-29 23:37:00,
2013-03-29 18:42:00,46.0,13.1,30.21,SE,135,3.0,4.0,26,0.00,,,0.00,meteohub,2013-03-29 23:42:00,
2013-03-29 18:47:00,45.7,12.7,30.20,SE,135,3.0,4.0,26,0.00,,,0.00,meteohub,2013-03-29 23:47:00,
2013-03-29 18:52:00,45.1,13.1,30.20,SE,135,4.0,4.0,27,0.00,,,0.00,meteohub,2013-03-29 23:52:00,
2013-03-29 18:57:00,44.4,13.3,30.20,SE,135,4.0,5.0,28,0.00,,,0.00,meteohub,2013-03-29 23:57:00,
2013-03-29 19:03:00,44.1,13.8,30.20,SE,135,4.0,5.0,29,0.00,,,0.00,meteohub,2013-03-30 00:03:00,
2013-03-29 19:08:00,44.1,13.8,30.20,SE,135,4.0,5.0,29,0.00,,,0.00,meteohub,2013-03-30 00:08:00,
2013-03-29 19:13:00,43.3,13.3,30.20,SSE,158,3.0,4.0,29,0.00,,,0.00,meteohub,2013-03-30 00:13:00,
2013-03-29 19:18:00,43.3,13.3,30.20,SSE,158,3.0,4.0,29,0.00,,,0.00,meteohub,2013-03-30 00:18:00,
2013-03-29 19:23:00,43.2,13.1,30.20,SE,135,2.0,4.0,29,0.00,,,0.00,meteohub,2013-03-30 00:23:00,
2013-03-29 19:29:00,43.0,12.9,30.20,SE,135,5.0,5.0,29,0.00,,,0.00,meteohub,2013-03-30 00:29:00,
2013-03-29 19:34:00,43.0,12.0,30.20,South,180,3.0,5.0,28,0.00,,,0.00,meteohub,2013-03-30 00:34:00,
2013-03-29 19:39:00,43.2,11.5,30.20,South,180,4.0,5.0,27,0.00,,,0.00,meteohub,2013-03-30 00:39:00,
2013-03-29 19:44:00,43.2,12.2,30.20,South,180,3.0,5.0,28,0.00,,,0.00,meteohub,2013-03-30 00:44:00,
2013-03-29 19:50:00,43.3,12.4,30.20,SE,135,2.0,5.0,28,0.00,,,0.00,meteohub,2013-03-30 00:50:00,
2013-03-29 19:55:00,43.2,12.2,30.20,SE,135,2.0,4.0,28,0.00,,,0.00,meteohub,2013-03-30 00:55:00,
2013-03-29 20:00:00,43.0,12.0,30.19,SE,135,2.0,3.0,28,0.00,,,0.00,meteohub,2013-03-30 01:00:00,
2013-03-29 20:05:00,42.6,11.8,30.20,SE,135,2.0,3.0,28,0.00,,,0.00,meteohub,2013-03-30 01:05:00,
2013-03-29 20:11:00,42.4,12.4,30.19,SE,135,3.0,3.0,29,0.00,,,0.00,meteohub,2013-03-30 01:11:00,
2013-03-29 20:16:00,41.9,12.0,30.19,South,180,3.0,4.0,29,0.00,,,0.00,meteohub,2013-03-30 01:16:00,
2013-03-29 20:22:00,41.9,12.0,30.20,South,180,3.0,4.0,29,0.00,,,0.00,meteohub,2013-03-30 01:22:00,
2013-03-29 20:27:00,41.9,12.0,30.20,SE,135,4.0,4.0,29,0.00,,,0.00,meteohub,2013-03-30 01:27:00,
2013-03-29 20:32:00,41.9,12.0,30.20,SE,135,4.0,4.0,29,0.00,,,0.00,meteohub,2013-03-30 01:32:00,
2013-03-29 20:37:00,41.9,12.0,30.20,SE,135,4.0,4.0,29,0.00,,,0.00,meteohub,2013-03-30 01:37:00,
2013-03-29 21:37:00,40.1,12.6,30.20,SE,135,6.0,-999.0,32,-99.99,,,0.00,meteohub,2013-03-30 02:37:00,
2013-03-29 21:42:00,40.1,12.6,30.20,South,180,4.0,6.0,32,0.00,,,0.00,meteohub,2013-03-30 02:42:00,
2013-03-29 21:48:00,39.9,12.4,30.20,SSE,158,4.0,6.0,32,0.00,,,0.00,meteohub,2013-03-30 02:48:00,
2013-03-29 21:53:00,39.9,12.4,30.20,South,180,4.0,6.0,32,0.00,,,0.00,meteohub,2013-03-30 02:53:00,
2013-03-29 21:58:00,39.9,12.4,30.20,South,180,4.0,4.0,32,0.00,,,0.00,meteohub,2013-03-30 02:58:00,
2013-03-29 22:04:00,39.9,12.4,30.20,South,180,4.0,6.0,32,0.00,,,0.00,meteohub,2013-03-30 03:04:00,
2013-03-29 22:09:00,39.6,12.7,30.20,South,180,5.0,6.0,33,0.00,,,0.00,meteohub,2013-03-30 03:09:00,
2013-03-29 22:14:00,39.4,12.7,30.20,SE,135,4.0,6.0,33,0.00,,,0.00,meteohub,2013-03-30 03:14:00,
2013-03-29 22:19:00,39.4,12.7,30.21,SE,135,4.0,5.0,33,0.00,,,0.00,meteohub,2013-03-30 03:19:00,
2013-03-29 22:24:00,39.2,13.1,30.20,South,180,4.0,5.0,34,0.00,,,0.00,meteohub,2013-03-30 03:24:00,
2013-03-29 22:29:00,38.8,13.5,30.20,SE,135,4.0,5.0,35,0.00,,,0.00,meteohub,2013-03-30 03:29:00,
2013-03-29 22:35:00,38.3,13.1,30.20,SE,135,2.0,4.0,35,0.00,,,0.00,meteohub,2013-03-30 03:35:00,
2013-03-29 22:40:00,37.9,13.3,30.20,SE,135,3.0,4.0,36,0.00,,,0.00,meteohub,2013-03-30 03:40:00,
2013-03-29 22:45:00,37.6,13.6,30.19,South,180,5.0,5.0,37,0.00,,,0.00,meteohub,2013-03-30 03:45:00,
2013-03-29 22:50:00,37.6,13.6,30.19,SE,135,4.0,4.0,37,0.00,,,0.00,meteohub,2013-03-30 03:50:00,
2013-03-29 22:55:00,37.6,13.6,30.20,SE,135,3.0,5.0,37,0.00,,,0.00,meteohub,2013-03-30 03:55:00,
2013-03-29 23:00:00,37.8,13.8,30.20,South,180,4.0,5.0,37,0.00,,,0.00,meteohub,2013-03-30 04:00:00,
2013-03-29 23:01:00,37.8,13.8,30.20,South,180,4.0,5.0,37,0.00,,,0.00,meteohub,2013-03-30 04:01:00,
2013-03-29 23:02:00,37.8,13.8,30.20,South,180,4.0,5.0,37,0.00,,,0.00,meteohub,2013-03-30 04:02:00,
2013-03-29 23:04:00,37.8,13.8,30.19,South,180,4.0,5.0,37,0.00,,,0.00,meteohub,2013-03-30 04:04:00,
2013-03-29 23:09:00,37.9,14.0,30.19,South,180,4.0,4.0,37,0.00,,,0.00,meteohub,2013-03-30 04:09:00,
2013-03-29 23:14:00,37.8,13.8,30.19,SE,135,4.0,4.0,37,0.00,,,0.00,meteohub,2013-03-30 04:14:00,
2013-03-29 23:19:00,37.6,13.6,30.19,East,90,2.0,4.0,37,0.00,,,0.00,meteohub,2013-03-30 04:19:00,
2013-03-29 23:24:00,37.6,14.2,30.19,South,180,3.0,4.0,38,0.00,,,0.00,meteohub,2013-03-30 04:24:00,
2013-03-29 23:29:00,37.6,13.6,30.19,SE,135,4.0,4.0,37,0.00,,,0.00,meteohub,2013-03-30 04:29:00,
2013-03-29 23:35:00,37.8,14.4,30.19,South,180,4.0,4.0,38,0.00,,,0.00,meteohub,2013-03-30 04:35:00,
2013-03-29 23:40:00,37.8,13.8,30.19,South,180,4.0,5.0,37,0.00,,,0.00,meteohub,2013-03-30 04:40:00,
2013-03-29 23:45:00,37.8,13.8,30.18,SE,135,6.0,6.0,37,0.00,,,0.00,meteohub,2013-03-30 04:45:00,
2013-03-29 23:50:00,37.8,14.4,30.18,SE,135,6.0,7.0,38,0.00,,,0.00,meteohub,2013-03-30 04:50:00,
2013-03-29 23:55:00,37.6,14.2,30.18,South,180,4.0,7.0,38,0.00,,,0.00,meteohub,2013-03-30 04:55:00,